User: anonymous   Login
Location: Unspecified
(0.0000°N, 0.0000°E)
Time: 03:36:08
(UTC+01:00)
Language:

Ariane H10 - Orbit

View from above orbital plane
View from above orbital plane
View from above satellite
View from above satellite

Ground track
Ground track

The orbit data is extracted from the following two-line orbital elements,

1 21815U 91084C   14304.62454383  .00000265  00000-0  71049-3 0  6697
2 21815 003.8886 113.7640 7187551 015.2817 009.8156 02.31135134190105
Epoch (UTC): 31 October 2014 14:59:20
Eccentricity: 0.7187551
inclination: 3.8886°
perigee height: 417 km
apogee height: 35152 km
right ascension of ascending node: 113.7640°
argument of perigee: 15.2817°
revolutions per day: 2.31135134
mean anomaly at epoch: 9.8156°
orbit number at epoch: 19010

The dashed part of the orbit path shows where the satellite is in the earth's shadow,  

DLR